User: anonymous   Login
Location: Unspecified
(0.0000°N, 0.0000°E)
Time: 10:39:00
(UTC+00:00)
Language:

Falconsat - Orbit

View from above orbital plane
View from above orbital plane
View from above satellite
View from above satellite

Ground track
Ground track

The orbit data is extracted from the following two-line orbital elements,

1 26064U 00004D   18019.74210843 -.00000026 +00000-0 +11085-4 0  9998
2 26064 100.2159 064.1830 0038381 073.2044 287.3342 14.36146579941934
Epoch (UTC): 19 January 2018 17:48:38
Eccentricity: 0.0038381
inclination: 100.2159°
perigee height: 744 km
apogee height: 799 km
right ascension of ascending node: 64.1830°
argument of perigee: 73.2044°
revolutions per day: 14.36146579
mean anomaly at epoch: 287.3342°
orbit number at epoch: 94193

The dashed part of the orbit path shows where the satellite is in the earth's shadow,  

DLR